Location: Cold Norton
(51.6667°N, 0.6667°E)
Time: 05:49:23
(UTC+00:00)

Cosmos 2251 Rocket - Pass Details

Date: 18 November 2025
Orbit: 760 x 788 km, 74.0° (Epoch: 17 December)

Event Time Altitude Azimuth Distance (km) Brightness Sun altitude
Rises 17:27:07 0° 181° (S) 3,233 7.0 -12.8°
Reaches altitude 10° 17:29:34 10° 175° (S) 2,315 6.1 -13.1°
Maximum altitude 17:34:31 43° 105° (ESE) 1,087 3.9 -13.9°
Enters shadow 17:38:43 14° 39° (NE) 2,060 5.3 -14.5°
